When you browse on this site, cookies collect data to enhance your experience and personalize the content and advertising you see.
Visit our Privacy Policy to learn more. By continuing to use the site, you agree to this use of cookies and data.
  • In Belgien
  • Länderverzeichnis
  • Für 7 Tage
  • Wassertemperatur
  • Satellitenkarten
  • Wetterkarte
  • Widgets
  • user-avatar
    Anmelden

    Stündliche Wetter Molepolole

    Heute, 25 April, Donnerstag

    Zeit Temperatur Niederschläge Wind Luftdruck Luftfeuchtigkeit
    00:00 +21°C° 0 mm 3 m/S 666 mmHg 59%
    01:00 +21°C° 0 mm 3 m/S 666 mmHg 60%
    02:00 +21°C° 0 mm 3 m/S 665 mmHg 62%
    03:00 +20°C° 0 mm 2 m/S 665 mmHg 64%
    04:00 +20°C° 0 mm 2 m/S 665 mmHg 66%
    05:00 +20°C° 0 mm 1 m/S 665 mmHg 69%
    06:00 +21°C° 0 mm 1 m/S 665 mmHg 67%
    07:00 +21°C° 0 mm 1 m/S 666 mmHg 65%
    08:00 +22°C° 0 mm 1 m/S 666 mmHg 63%
    09:00 +24°C° 0 mm 2 m/S 667 mmHg 56%
    10:00 +26°C° 0 mm 3 m/S 667 mmHg 49%
    11:00 +28°C° 0 mm 4 m/S 667 mmHg 42%
    12:00 +29°C° 0 mm 4 m/S 667 mmHg 40%
    13:00 +29°C° 0 mm 3 m/S 666 mmHg 38%
    14:00 +29°C° 0 mm 3 m/S 666 mmHg 35%
    15:00 +29°C° 0 mm 3 m/S 665 mmHg 34%
    16:00 +30°C° 0 mm 2 m/S 665 mmHg 32%
    17:00 +30°C° 0 mm 2 m/S 665 mmHg 30%
    18:00 +28°C° 0 mm 2 m/S 665 mmHg 31%
    19:00 +26°C° 0 mm 2 m/S 665 mmHg 31%
    20:00 +24°C° 0 mm 2 m/S 664 mmHg 32%
    21:00 +23°C° 0 mm 2 m/S 664 mmHg 31%
    22:00 +22°C° 0 mm 1 m/S 664 mmHg 31%
    23:00 +21°C° 0 mm 1 m/S 664 mmHg 31%

    Morgen, 26 April, Freitag

    Zeit Temperatur Niederschläge Wind Luftdruck Luftfeuchtigkeit
    00:00 +20°C° 0 mm 1 m/S 664 mmHg 31%
    01:00 +20°C° 0 mm 1 m/S 664 mmHg 32%
    02:00 +17°C° 0 mm 0 m/S 664 mmHg 33%
    03:00 +19°C° 0 mm 1 m/S 664 mmHg 33%
    04:00 +19°C° 0 mm 1 m/S 664 mmHg 33%
    05:00 +18°C° 0 mm 1 m/S 664 mmHg 33%
    06:00 +19°C° 0 mm 1 m/S 664 mmHg 32%
    07:00 +20°C° 0 mm 1 m/S 665 mmHg 31%
    08:00 +21°C° 0 mm 1 m/S 665 mmHg 31%
    09:00 +23°C° 0 mm 1 m/S 666 mmHg 27%
    10:00 +26°C° 0 mm 1 m/S 667 mmHg 23%
    11:00 +28°C° 0 mm 1 m/S 667 mmHg 19%
    12:00 +29°C° 0 mm 2 m/S 667 mmHg 17%
    13:00 +30°C° 0 mm 2 m/S 666 mmHg 14%
    14:00 +31°C° 0 mm 3 m/S 666 mmHg 12%
    15:00 +30°C° 0 mm 2 m/S 665 mmHg 13%
    16:00 +30°C° 0 mm 2 m/S 665 mmHg 14%
    17:00 +29°C° 0 mm 2 m/S 665 mmHg 15%
    18:00 +28°C° 0 mm 2 m/S 665 mmHg 18%
    19:00 +26°C° 0 mm 2 m/S 665 mmHg 20%
    20:00 +24°C° 0 mm 2 m/S 665 mmHg 23%
    21:00 +23°C° 0 mm 2 m/S 665 mmHg 24%
    22:00 +21°C° 0 mm 2 m/S 665 mmHg 26%
    23:00 +21°C° 0 mm 2 m/S 665 mmHg 27%

    übermorgen, 27 April, Samstag

    Zeit Temperatur Niederschläge Wind Luftdruck Luftfeuchtigkeit
    00:00 +20°C° 0 mm 2 m/S 665 mmHg 28%
    01:00 +20°C° 0 mm 2 m/S 665 mmHg 29%
    02:00 +19°C° 0 mm 2 m/S 664 mmHg 30%
    03:00 +18°C° 0 mm 2 m/S 664 mmHg 31%
    04:00 +18°C° 0 mm 2 m/S 664 mmHg 32%
    05:00 +17°C° 0 mm 2 m/S 664 mmHg 33%
    06:00 +18°C° 0 mm 2 m/S 665 mmHg 33%
    07:00 +19°C° 0 mm 2 m/S 665 mmHg 33%
    08:00 +19°C° 0 mm 3 m/S 666 mmHg 32%
    09:00 +21°C° 0 mm 3 m/S 666 mmHg 34%
    10:00 +25°C° 0 mm 4 m/S 667 mmHg 35%
    11:00 +27°C° 0 mm 4 m/S 668 mmHg 36%
    12:00 +28°C° 0 mm 4 m/S 667 mmHg 31%
    13:00 +29°C° 0 mm 3 m/S 667 mmHg 25%
    14:00 +31°C° 0 mm 2 m/S 666 mmHg 20%
    15:00 +31°C° 0 mm 2 m/S 666 mmHg 20%
    16:00 +30°C° 0 mm 1 m/S 666 mmHg 21%
    17:00 +30°C° 0 mm 1 m/S 666 mmHg 21%
    18:00 +28°C° 0 mm 1 m/S 666 mmHg 25%
    19:00 +26°C° 0 mm 2 m/S 666 mmHg 30%
    20:00 +24°C° 0 mm 2 m/S 666 mmHg 34%
    21:00 +24°C° 0 mm 2 m/S 666 mmHg 39%
    22:00 +23°C° 0 mm 2 m/S 666 mmHg 45%
    23:00 +22°C° 0 mm 1 m/S 666 mmHg 50%

    28 April, Sonntag

    Zeit Temperatur Niederschläge Wind Luftdruck Luftfeuchtigkeit
    00:00 +22°C° 0 mm 1 m/S 666 mmHg 53%
    01:00 +21°C° 0 mm 1 m/S 666 mmHg 56%
    02:00 +21°C° 0 mm 1 m/S 666 mmHg 59%
    03:00 +20°C° 0 mm 1 m/S 666 mmHg 63%
    04:00 +19°C° 0 mm 2 m/S 666 mmHg 66%
    05:00 +18°C° 0 mm 2 m/S 666 mmHg 70%
    06:00 +19°C° 0 mm 2 m/S 667 mmHg 71%
    07:00 +19°C° 0 mm 3 m/S 667 mmHg 73%
    08:00 +20°C° 0 mm 3 m/S 668 mmHg 74%
    09:00 +22°C° 0 mm 3 m/S 668 mmHg 65%
    10:00 +25°C° 0 mm 4 m/S 669 mmHg 56%
    11:00 +27°C° 0 mm 4 m/S 669 mmHg 48%
    12:00 +29°C° 0 mm 4 m/S 669 mmHg 42%
    13:00 +30°C° 0 mm 4 m/S 668 mmHg 35%
    14:00 +32°C° 0 mm 4 m/S 668 mmHg 29%
    15:00 +30°C° 0 mm 3 m/S 668 mmHg 29%
    16:00 +30°C° 0 mm 3 m/S 667 mmHg 29%
    17:00 +30°C° 0 mm 3 m/S 667 mmHg 29%
    18:00 +28°C° 0 mm 3 m/S 667 mmHg 33%
    19:00 +27°C° 0 mm 2 m/S 667 mmHg 36%
    20:00 +25°C° 0 mm 2 m/S 668 mmHg 40%
    21:00 +25°C° 0 mm 1 m/S 668 mmHg 41%
    22:00 +24°C° 0 mm 1 m/S 668 mmHg 43%
    23:00 +23°C° 0 mm 1 m/S 668 mmHg 45%

    29 April, Montag

    Zeit Temperatur Niederschläge Wind Luftdruck Luftfeuchtigkeit
    00:00 +23°C° 0 mm 1 m/S 668 mmHg 47%
    01:00 +21°C° 0 mm 2 m/S 668 mmHg 48%
    02:00 +21°C° 0 mm 2 m/S 668 mmHg 50%
    03:00 +20°C° 0 mm 2 m/S 668 mmHg 53%
    04:00 +20°C° 0 mm 2 m/S 668 mmHg 57%
    05:00 +19°C° 0 mm 3 m/S 668 mmHg 60%
    06:00 +19°C° 0 mm 3 m/S 668 mmHg 62%
    07:00 +19°C° 0 mm 4 m/S 669 mmHg 64%
    08:00 +20°C° 0 mm 4 m/S 669 mmHg 66%
    09:00 +21°C° 0 mm 4 m/S 670 mmHg 58%
    10:00 +23°C° 0 mm 4 m/S 670 mmHg 50%
    11:00 +26°C° 0 mm 4 m/S 671 mmHg 43%
    12:00 +27°C° 0 mm 4 m/S 670 mmHg 39%
    13:00 +28°C° 0 mm 4 m/S 670 mmHg 36%
    14:00 +29°C° 0 mm 4 m/S 669 mmHg 32%
    15:00 +29°C° 0 mm 4 m/S 669 mmHg 32%
    16:00 +29°C° 0 mm 3 m/S 669 mmHg 32%
    17:00 +29°C° 0 mm 3 m/S 668 mmHg 31%
    18:00 +27°C° 0 mm 3 m/S 668 mmHg 35%
    19:00 +25°C° 0 mm 2 m/S 668 mmHg 38%
    20:00 +24°C° 0 mm 2 m/S 668 mmHg 42%
    21:00 +23°C° 0 mm 2 m/S 668 mmHg 43%
    22:00 +23°C° 0 mm 1 m/S 668 mmHg 45%
    23:00 +22°C° 0 mm 1 m/S 668 mmHg 46%

    30 April, Dienstag

    Zeit Temperatur Niederschläge Wind Luftdruck Luftfeuchtigkeit
    00:00 +21°C° 0 mm 1 m/S 668 mmHg 48%
    01:00 +21°C° 0 mm 1 m/S 668 mmHg 49%
    02:00 +20°C° 0 mm 1 m/S 668 mmHg 50%
    03:00 +20°C° 0 mm 1 m/S 668 mmHg 51%
    04:00 +18°C° 0 mm 2 m/S 668 mmHg 52%
    05:00 +18°C° 0 mm 2 m/S 668 mmHg 53%
    06:00 +18°C° 0 mm 2 m/S 668 mmHg 52%
    07:00 +18°C° 0 mm 2 m/S 669 mmHg 51%
    08:00 +18°C° 0 mm 3 m/S 669 mmHg 49%
    09:00 +20°C° 0 mm 3 m/S 669 mmHg 45%
    10:00 +22°C° 0 mm 3 m/S 669 mmHg 40%
    11:00 +25°C° 0 mm 3 m/S 670 mmHg 35%
    12:00 +26°C° 0 mm 3 m/S 669 mmHg 33%
    13:00 +27°C° 0 mm 3 m/S 669 mmHg 30%
    14:00 +29°C° 0 mm 3 m/S 668 mmHg 28%
    15:00 +28°C° 0 mm 3 m/S 668 mmHg 27%
    16:00 +28°C° 0 mm 2 m/S 668 mmHg 27%
    17:00 +28°C° 0 mm 2 m/S 667 mmHg 27%
    18:00 +27°C° 0 mm 2 m/S 667 mmHg 30%
    19:00 +25°C° 0 mm 2 m/S 667 mmHg 33%
    20:00 +23°C° 0 mm 1 m/S 667 mmHg 36%
    21:00 +22°C° 0 mm 1 m/S 667 mmHg 38%
    22:00 +22°C° 0 mm 1 m/S 667 mmHg 40%
    23:00 +21°C° 0 mm 1 m/S 667 mmHg 41%
    Mehr zeigen